Погода в Волышове

Россия / Псковская область     57°37′16″N   29°41′09″E
темп.,
°C
ветер,
м/с
пор.,
м/с
влажн.,
%
обл.,
%
осадки,
мм/ч
давл.,
гПа
погр.,
м
13 августа, сб
сб1300:00+16зюз1179100 0.0 102411
03:00+15зюз228240 0.0 102414
06:00+14зюз11846 0.0 102411
09:00+20зсз116424 0.0 1023262
12:00+25зсз114983 0.0 10231034
15:00+26ссз114332 0.0 10221426
18:00+26с21503 0.0 10211163
21:00+19ссз11665 0.0 102111
14 августа, вс
вс1400:00+17с117550 0.0 102111
03:00+15всв118121 0.0 102111
06:00+15всв11836 0.0 102111
09:00+20в236635 0.0 1021269
12:00+25в235496 0.0 1020950
15:00+26вюв2348100 0.0 10191544
18:00+26вюв235370 0.0 10181465
21:00+20св2270100 0.0 101811
15 августа, пн
пн1500:00+18в2282100 0.0 101924
03:00+16вюв228696 0.0 101915
06:00+16юв2378100 0.0 101952
09:00+22юв356663 0.0 1019279
12:00+26вюв455170 0.0 1019860
15:00+28юв344656 0.0 10181789
18:00+28юв245265 0.0 10181406
21:00+22юв227019 0.0 101819
16 августа, вт
вт1600:00+19ююв247292 0.0 101862
03:00+17ююв23735 0.0 101938
06:00+16вюв23745 0.0 101837
09:00+22юв366319 0.0 1018288
12:00+27юв464872 0.0 1018896
15:00+30ююв453970 0.0 10171656
18:00+28ююв464817 0.0 1017740
21:00+22ю397298 0.0 1018181
17 августа, ср
ср1700:00+19ююв367251 0.0 1018102
03:00+20юв3866100 0.0 1018190
06:00+20юв246893 0.0 1018106
09:00+23юв366094 0.0 1018346
12:00+26вюв464199 0.0 10181133
15:00+28вюв453583 0.0 10171560
18:00+28в244828 0.0 1016511
21:00+21юв226849 0.0 101612